Starlink 33701

operational
NORAD ID: 63464 Int'l Des: 2025-070 Owner: SPXS Country: US Constellation: starlink
LEOCIRCULAR

About Starlink 33701

Description loading...

Live Position

Loading 3D Globe...

Upcoming Passes

Altitude History

Altitude vs Time

uPlot chart will show altitude changes over time

Two-Line Element Set

1 63464U 25070E 25259.05315248 .00021982 00000-0 80508-3 0 9994
2 63464 43.0024 166.4370 0000862 268.0322 92.0431 15.27616419 26261
Epoch: Sep 16, 2025 • Age: 59 hours

Current Status

Altitude 493.7 km
Velocity 7.62 km/s
Sub-Earth Point -39.14°S, 94.59°W
Launch Date Apr 6, 2025
Age 0.4 years
Type internet

Technical Details

Classification Payload
Mass 575.00 kg
Dry Mass 530.00 kg
Total Mass 575.00 kg
Length 0.30 m
Diameter 4.10 m
Span 29.00 m
Shape Box + pan
Manufacturer SPXS
Bus Type Starlink V2MO
Phase Status In Orbit
Owner/State SPXS/US

Large Constellations

Loading constellations...